Powrót do katalogu

STARLINK-3964

AktywnyŁącznośćVLEO
NORAD 52536·PAYLOAD·🇺🇸 United States

Wystrzelony May 13, 2022 z Vandenberg Space Force Base

Loading…

Następne Przeloty (najbliższe 24 godziny)

TLE

ŚwieżeSource: CelesTrak SupGP

Epoka: Sep 14, 2026, 21:52 UTC

1 52536C 22051D   26257.91159722 -.00036355  00000+0 -10744-2 0  2577
2 52536  53.1602 347.5025 0001207  83.6648 210.3555 15.34401948    12

Śledź STARLINK-3964 w czasie rzeczywistym z AllMySat

Download on the App Store